Location: Beemte
(52.2555°N, 5.9895°E)
Time: 11:31:48
(UTC+00:00)

ATLAS 2AS CENTAUR R/B - Pass Details

Date: 15 May 2026
Orbit: 1053 x 1158 km, 63.7° (Epoch: 9 June)

Event Time Altitude Azimuth Distance (km) Brightness Sun altitude
Rises 22:42:30 0° 301° (WNW) 3,856 6.3 -17.9°
Reaches altitude 10° 22:45:26 10° 310° (NW) 2,890 5.7 -18.0°
Maximum altitude 22:51:38 35° 15° (NNE) 1,630 4.2 -18.1°
Drops below altitude 10° 22:57:47 10° 80° (E) 2,876 5.0 -18.3°
Sets 23:00:41 0° 90° (E) 3,834 5.5 -18.4°
